Pendleton, OR

5:26 AM PDT on June 29, 2017 (GMT -0700)
Eastern Oreg Regional At Pendleton

Weather History for KPDT - May, 2013

Change the Weather History Date:

Wednesday, May 22, 2013

  Actual Average Record
Temperature  
Mean Temperature 47 °F 59 °F  
Max Temperature 54 °F 72 °F 94 °F (1951)
Min Temperature 39 °F 47 °F 32 °F (1920)
Degree Days  
Heating Degree Days 18 6  
Month to date heating degree days 138 196  
Since 1 July heating degree days 4925 5143  
Cooling Degree Days 0 1  
Month to date cooling degree days 31 13  
Year to date cooling degree days 31 14  
Moisture  
Dew Point 36 °F    
Average Humidity 70    
Maximum Humidity 93    
Minimum Humidity 46    
Precipitation  
Precipitation 0.22 in 0.05 in 0.96 in (1898)
Month to date precipitation 0.71 0.92  
Year to date precipitation 3.56 5.98  
Snow  
Snow 0.00 in 0.00 in 0.00 in (2002)
Month to date snowfall 0.0 0.0  
Year to date snowfall 0.2 7.7  
Since 1 July snowfall 2.0 15.2  
Snow Depth 0.00 in    
Sea Level Pressure  
Sea Level Pressure 29.91 in    
Wind  
Wind Speed 11 mph (SW)    
Max Wind Speed 23 mph    
Max Gust Speed 30 mph    
Visibility 9 miles    
Events Rain    
T = Trace of Precipitation, MM = Missing Value Source: NWS Daily Summary

Daily Weather History Graph

Daily Weather History Graph

Search for Another Location

Airport or City:

Trip Planner

Search our weather history database for the weather conditions in past years. The results will help you decide how hot, cold, wet, or windy it might be!

Date:

Astronomy

May. 22, 2013 Rise Set
Actual Time 5:16 AM PDT 8:28 PM PDT
Civil Twilight 4:40 AM PDT 9:04 PM PDT
Nautical Twilight 3:54 AM PDT 9:50 PM PDT
Astronomical Twilight 2:57 AM PDT 10:48 PM PDT
Moon 5:49 PM PDT (5/22) 3:32 AM PDT (5/22)
Length of Visible Light 16h 23m
Length of Day
15h 11m
Waxing Gibbous, 92% of the Moon is Illuminated
May 22
Waxing Gibbous
May 24
Full
May 31
Last Quarter
Jun 8
New
Jun 16
First Quarter

Hourly Weather History & Observations

Time (PDT) Temp. Windchill Dew Point Humidity Pressure Visibility Wind Dir Wind Speed Gust Speed Precip Events Conditions
12:53 AM 42.1 °F 36.1 °F 36.0 °F 79% 29.86 in 10.0 mi WSW 10.4 mph - N/A   Overcast
1:40 AM 41.0 °F 32.8 °F 35.1 °F 79% 29.87 in 10.0 mi WSW 16.1 mph 27.6 mph N/A   Overcast
1:53 AM 41.0 °F 33.9 °F 35.1 °F 79% 29.88 in 10.0 mi WSW 12.7 mph - N/A   Overcast
2:13 AM 39.9 °F 35.8 °F 34.0 °F 79% 29.87 in 10.0 mi SW 5.8 mph - N/A   Overcast
2:53 AM 41.0 °F 35.2 °F 34.0 °F 76% 29.88 in 10.0 mi SW 9.2 mph - N/A   Overcast
3:53 AM 42.1 °F 37.1 °F 32.0 °F 67% 29.87 in 10.0 mi SSW 8.1 mph - N/A   Overcast
4:53 AM 41.0 °F 33.5 °F 33.1 °F 73% 29.88 in 10.0 mi WSW 13.8 mph - N/A   Overcast
5:53 AM 41.0 °F 33.5 °F 33.1 °F 73% 29.87 in 10.0 mi SW 13.8 mph - N/A   Overcast
6:53 AM 41.0 °F 35.2 °F 33.1 °F 73% 29.89 in 10.0 mi South 9.2 mph - N/A   Overcast
7:53 AM 43.0 °F 37.2 °F 33.1 °F 68% 29.89 in 10.0 mi South 10.4 mph - N/A   Overcast
8:53 AM 46.0 °F 40.6 °F 30.9 °F 56% 29.89 in 10.0 mi SW 11.5 mph - N/A   Overcast
9:53 AM 45.0 °F 39.7 °F 34.0 °F 65% 29.88 in 9.0 mi WNW 10.4 mph - 0.00 in Rain Light Rain
10:53 AM 48.9 °F - 34.0 °F 56% 29.88 in 10.0 mi West 13.8 mph 21.9 mph 0.01 in   Overcast
11:53 AM 50.0 °F - 34.0 °F 54% 29.89 in 10.0 mi West 19.6 mph 24.2 mph 0.00 in   Overcast
12:53 PM 50.0 °F - 36.0 °F 59% 29.90 in 10.0 mi West 15.0 mph - 0.00 in   Overcast
1:53 PM 51.1 °F - 35.1 °F 54% 29.90 in 10.0 mi WSW 16.1 mph - N/A   Overcast
2:53 PM 53.1 °F - 35.1 °F 50% 29.91 in 10.0 mi West 19.6 mph 26.5 mph 0.00 in   Mostly Cloudy
3:53 PM 53.1 °F - 34.0 °F 48% 29.91 in 10.0 mi South 5.8 mph - N/A   Mostly Cloudy
4:53 PM 48.9 °F - 39.0 °F 69% 29.91 in 10.0 mi East 6.9 mph - 0.00 in   Overcast
5:15 PM 46.0 °F 39.6 °F 39.9 °F 79% 29.93 in 2.0 mi West 15.0 mph 19.6 mph 0.09 in Rain Rain
5:23 PM 46.0 °F 40.6 °F 41.0 °F 83% 29.93 in 7.0 mi WNW 11.5 mph 19.6 mph 0.09 in Rain Light Rain
5:53 PM 46.0 °F 42.5 °F 41.0 °F 83% 29.93 in 10.0 mi NNW 6.9 mph - 0.11 in   Mostly Cloudy
6:53 PM 45.0 °F 41.2 °F 42.1 °F 90% 29.96 in 4.0 mi West 6.9 mph - 0.05 in Rain Rain
7:03 PM 44.1 °F 40.1 °F 39.9 °F 85% 29.95 in 2.5 mi WSW 6.9 mph - 0.03 in Rain Rain
7:11 PM 44.1 °F 42.5 °F 41.0 °F 89% 29.95 in 6.0 mi WNW 3.5 mph - 0.04 in Rain Light Rain
7:53 PM 45.0 °F 39.7 °F 42.1 °F 90% 29.97 in 10.0 mi SSE 10.4 mph - 0.05 in Rain Light Rain
8:53 PM 43.0 °F 38.2 °F 41.0 °F 93% 29.97 in 10.0 mi SSE 8.1 mph - 0.00 in   Overcast
9:53 PM 41.0 °F 36.4 °F 39.0 °F 93% 29.97 in 10.0 mi ESE 6.9 mph - N/A   Mostly Cloudy
10:53 PM 41.0 °F 37.1 °F 39.0 °F 93% 29.97 in 10.0 mi SSE 5.8 mph - 0.00 in   Scattered Clouds
11:53 PM 39.9 °F 35.1 °F 37.9 °F 93% 29.96 in 10.0 mi SSE 6.9 mph - N/A   Clear